owner,sensor,date,latitude,longitude,vertical_datum,sea_water_temperature,qcFlag 
COMPS,ioos:station:USF.COMPS:C10:1,2009-08-01T00:00:00Z,27.1690,-82.9260,-1.0,30.33,2 
COMPS,ioos:station:USF.COMPS:C10:1,2009-08-01T00:20:00Z,27.1690,-82.9260,-1.0,30.32,2 
COMPS,ioos:station:USF.COMPS:C10:1,2009-08-01T00:40:00Z,27.1690,-82.9260,-1.0,30.32,2 
COMPS,ioos:station:USF.COMPS:C10:1,2009-08-01T01:00:00Z,27.1690,-82.9260,-1.0,30.31,2 
COMPS,ioos:station:USF.COMPS:C10:1,2009-08-01T01:20:00Z,27.1690,-82.9260,-1.0,30.31,2 
COMPS,ioos:station:USF.COMPS:C10:1,2009-08-01T01:40:00Z,27.1690,-82.9260,-1.0,30.31,2 
COMPS,ioos:station:USF.COMPS:C10:1,2009-08-01T02:00:00Z,27.1690,-82.9260,-1.0,30.3,2 
COMPS,ioos:station:USF.COMPS:C10:1,2009-08-01T02:20:00Z,27.1690,-82.9260,-1.0,30.29,2 
COMPS,ioos:station:USF.COMPS:C10:1,2009-08-01T02:40:00Z,27.1690,-82.9260,-1.0,30.29,2 
COMPS,ioos:station:USF.COMPS:C10:1,2009-08-01T03:00:00Z,27.1690,-82.9260,-1.0,30.27,2 
COMPS,ioos:station:USF.COMPS:C10:1,2009-08-01T03:20:00Z,27.1690,-82.9260,-1.0,30.28,2 
COMPS,ioos:station:USF.COMPS:C10:1,2009-08-01T03:40:00Z,27.1690,-82.9260,-1.0,30.25,2 
COMPS,ioos:station:USF.COMPS:C10:1,2009-08-01T04:00:00Z,27.1690,-82.9260,-1.0,30.26,2 
COMPS,ioos:station:USF.COMPS:C10:1,2009-08-01T04:20:00Z,27.1690,-82.9260,-1.0,30.26,2 
COMPS,ioos:station:USF.COMPS:C10:1,2009-08-01T04:40:00Z,27.1690,-82.9260,-1.0,30.25,2 
COMPS,ioos:station:USF.COMPS:C10:1,2009-08-01T05:00:00Z,27.1690,-82.9260,-1.0,30.24,2 
COMPS,ioos:station:USF.COMPS:C10:1,2009-08-01T05:20:00Z,27.1690,-82.9260,-1.0,30.23,2 
COMPS,ioos:station:USF.COMPS:C10:1,2009-08-01T05:40:00Z,27.1690,-82.9260,-1.0,30.22,2 
COMPS,ioos:station:USF.COMPS:C10:1,2009-08-01T06:00:00Z,27.1690,-82.9260,-1.0,30.24,2 
COMPS,ioos:station:USF.COMPS:C10:1,2009-08-01T06:20:00Z,27.1690,-82.9260,-1.0,30.22,2 
COMPS,ioos:station:USF.COMPS:C10:1,2009-08-01T06:40:00Z,27.1690,-82.9260,-1.0,30.21,2 
COMPS,ioos:station:USF.COMPS:C10:1,2009-08-01T07:00:00Z,27.1690,-82.9260,-1.0,30.21,2 
COMPS,ioos:station:USF.COMPS:C10:1,2009-08-01T07:20:00Z,27.1690,-82.9260,-1.0,30.22,2 
COMPS,ioos:station:USF.COMPS:C10:1,2009-08-01T07:40:00Z,27.1690,-82.9260,-1.0,30.2,2 
COMPS,ioos:station:USF.COMPS:C10:1,2009-08-01T08:00:00Z,27.1690,-82.9260,-1.0,30.19,2 
COMPS,ioos:station:USF.COMPS:C10:1,2009-08-01T08:20:00Z,27.1690,-82.9260,-1.0,30.17,2 
COMPS,ioos:station:USF.COMPS:C10:1,2009-08-01T08:40:00Z,27.1690,-82.9260,-1.0,30.16,2 
COMPS,ioos:station:USF.COMPS:C10:1,2009-08-01T09:00:00Z,27.1690,-82.9260,-1.0,30.16,2 
COMPS,ioos:station:USF.COMPS:C10:1,2009-08-01T09:20:00Z,27.1690,-82.9260,-1.0,30.15,2 
COMPS,ioos:station:USF.COMPS:C10:1,2009-08-01T09:40:00Z,27.1690,-82.9260,-1.0,30.14,2 
COMPS,ioos:station:USF.COMPS:C10:1,2009-08-01T10:00:00Z,27.1690,-82.9260,-1.0,30.13,2 
COMPS,ioos:station:USF.COMPS:C10:1,2009-08-01T10:20:00Z,27.1690,-82.9260,-1.0,30.12,2 
COMPS,ioos:station:USF.COMPS:C10:1,2009-08-01T10:40:00Z,27.1690,-82.9260,-1.0,30.11,2 
COMPS,ioos:station:USF.COMPS:C10:1,2009-08-01T11:00:00Z,27.1690,-82.9260,-1.0,30.09,2 
COMPS,ioos:station:USF.COMPS:C10:1,2009-08-01T11:20:00Z,27.1690,-82.9260,-1.0,30.08,2 
COMPS,ioos:station:USF.COMPS:C10:1,2009-08-01T11:40:00Z,27.1690,-82.9260,-1.0,30.07,2 
COMPS,ioos:station:USF.COMPS:C10:1,2009-08-01T12:00:00Z,27.1690,-82.9260,-1.0,30.06,2 
COMPS,ioos:station:USF.COMPS:C10:1,2009-08-01T12:20:00Z,27.1690,-82.9260,-1.0,30.04,2 
COMPS,ioos:station:USF.COMPS:C10:1,2009-08-01T12:40:00Z,27.1690,-82.9260,-1.0,30.04,2 
COMPS,ioos:station:USF.COMPS:C10:1,2009-08-01T13:00:00Z,27.1690,-82.9260,-1.0,30.05,2 
COMPS,ioos:station:USF.COMPS:C10:1,2009-08-01T13:20:00Z,27.1690,-82.9260,-1.0,30.05,2 
COMPS,ioos:station:USF.COMPS:C10:1,2009-08-01T13:40:00Z,27.1690,-82.9260,-1.0,30.05,2 
COMPS,ioos:station:USF.COMPS:C10:1,2009-08-01T14:00:00Z,27.1690,-82.9260,-1.0,30.07,2 
COMPS,ioos:station:USF.COMPS:C10:1,2009-08-01T14:20:00Z,27.1690,-82.9260,-1.0,30.07,2 
COMPS,ioos:station:USF.COMPS:C10:1,2009-08-01T14:40:00Z,27.1690,-82.9260,-1.0,30.07,2 
COMPS,ioos:station:USF.COMPS:C10:1,2009-08-01T15:00:00Z,27.1690,-82.9260,-1.0,30.08,2 
COMPS,ioos:station:USF.COMPS:C10:1,2009-08-01T15:20:00Z,27.1690,-82.9260,-1.0,30.1,2 
COMPS,ioos:station:USF.COMPS:C10:1,2009-08-01T15:40:00Z,27.1690,-82.9260,-1.0,30.13,2 
COMPS,ioos:station:USF.COMPS:C10:1,2009-08-01T16:00:00Z,27.1690,-82.9260,-1.0,30.14,2 
COMPS,ioos:station:USF.COMPS:C10:1,2009-08-01T16:20:00Z,27.1690,-82.9260,-1.0,30.15,2 
COMPS,ioos:station:USF.COMPS:C10:1,2009-08-01T16:40:00Z,27.1690,-82.9260,-1.0,30.15,2 
COMPS,ioos:station:USF.COMPS:C10:1,2009-08-01T17:00:00Z,27.1690,-82.9260,-1.0,30.16,2 
COMPS,ioos:station:USF.COMPS:C10:1,2009-08-01T17:20:00Z,27.1690,-82.9260,-1.0,30.17,2 
COMPS,ioos:station:USF.COMPS:C10:1,2009-08-01T17:40:00Z,27.1690,-82.9260,-1.0,30.19,2 
COMPS,ioos:station:USF.COMPS:C10:1,2009-08-01T18:00:00Z,27.1690,-82.9260,-1.0,30.21,2 
COMPS,ioos:station:USF.COMPS:C10:1,2009-08-01T18:20:00Z,27.1690,-82.9260,-1.0,30.23,2 
COMPS,ioos:station:USF.COMPS:C10:1,2009-08-01T18:40:00Z,27.1690,-82.9260,-1.0,30.25,2 
COMPS,ioos:station:USF.COMPS:C10:1,2009-08-01T19:00:00Z,27.1690,-82.9260,-1.0,30.27,2 
COMPS,ioos:station:USF.COMPS:C10:1,2009-08-01T19:20:00Z,27.1690,-82.9260,-1.0,30.3,2 
COMPS,ioos:station:USF.COMPS:C10:1,2009-08-01T19:40:00Z,27.1690,-82.9260,-1.0,30.38,2 
COMPS,ioos:station:USF.COMPS:C10:1,2009-08-01T20:00:00Z,27.1690,-82.9260,-1.0,30.46,2 
COMPS,ioos:station:USF.COMPS:C10:1,2009-08-01T20:20:00Z,27.1690,-82.9260,-1.0,30.41,2 
COMPS,ioos:station:USF.COMPS:C10:1,2009-08-01T20:40:00Z,27.1690,-82.9260,-1.0,30.44,2 
COMPS,ioos:station:USF.COMPS:C10:1,2009-08-01T21:00:00Z,27.1690,-82.9260,-1.0,30.39,2 
COMPS,ioos:station:USF.COMPS:C10:1,2009-08-01T21:20:00Z,27.1690,-82.9260,-1.0,30.36,2 
COMPS,ioos:station:USF.COMPS:C10:1,2009-08-01T21:40:00Z,27.1690,-82.9260,-1.0,30.36,2 
COMPS,ioos:station:USF.COMPS:C10:1,2009-08-01T22:00:00Z,27.1690,-82.9260,-1.0,30.36,2 
COMPS,ioos:station:USF.COMPS:C10:1,2009-08-01T22:20:00Z,27.1690,-82.9260,-1.0,30.4,2 
COMPS,ioos:station:USF.COMPS:C10:1,2009-08-01T22:40:00Z,27.1690,-82.9260,-1.0,30.43,2 
COMPS,ioos:station:USF.COMPS:C10:1,2009-08-01T23:00:00Z,27.1690,-82.9260,-1.0,30.4,2 
COMPS,ioos:station:USF.COMPS:C10:1,2009-08-01T23:20:00Z,27.1690,-82.9260,-1.0,30.37,2 
COMPS,ioos:station:USF.COMPS:C10:1,2009-08-01T23:40:00Z,27.1690,-82.9260,-1.0,30.36,2 
COMPS,ioos:station:USF.COMPS:C10:1,2009-08-02T00:00:00Z,27.1690,-82.9260,-1.0,30.42,2 
COMPS,ioos:station:USF.COMPS:C10:1,2009-08-02T00:20:00Z,27.1690,-82.9260,-1.0,30.44,2 
COMPS,ioos:station:USF.COMPS:C10:1,2009-08-02T00:40:00Z,27.1690,-82.9260,-1.0,30.39,2 
COMPS,ioos:station:USF.COMPS:C10:1,2009-08-02T01:00:00Z,27.1690,-82.9260,-1.0,30.42,2 
COMPS,ioos:station:USF.COMPS:C10:1,2009-08-02T01:20:00Z,27.1690,-82.9260,-1.0,30.37,2 
COMPS,ioos:station:USF.COMPS:C10:1,2009-08-02T01:40:00Z,27.1690,-82.9260,-1.0,30.33,2 
COMPS,ioos:station:USF.COMPS:C10:1,2009-08-02T02:00:00Z,27.1690,-82.9260,-1.0,30.39,2 
COMPS,ioos:station:USF.COMPS:C10:1,2009-08-02T02:20:00Z,27.1690,-82.9260,-1.0,30.36,2 
COMPS,ioos:station:USF.COMPS:C10:1,2009-08-02T02:40:00Z,27.1690,-82.9260,-1.0,30.37,2 
COMPS,ioos:station:USF.COMPS:C10:1,2009-08-02T03:00:00Z,27.1690,-82.9260,-1.0,30.39,2 
COMPS,ioos:station:USF.COMPS:C10:1,2009-08-02T03:20:00Z,27.1690,-82.9260,-1.0,30.39,2 
COMPS,ioos:station:USF.COMPS:C10:1,2009-08-02T03:40:00Z,27.1690,-82.9260,-1.0,30.36,2 
COMPS,ioos:station:USF.COMPS:C10:1,2009-08-02T04:00:00Z,27.1690,-82.9260,-1.0,30.36,2 
COMPS,ioos:station:USF.COMPS:C10:1,2009-08-02T04:20:00Z,27.1690,-82.9260,-1.0,30.36,2 
COMPS,ioos:station:USF.COMPS:C10:1,2009-08-02T04:40:00Z,27.1690,-82.9260,-1.0,30.36,2 
COMPS,ioos:station:USF.COMPS:C10:1,2009-08-02T05:00:00Z,27.1690,-82.9260,-1.0,30.34,2 
COMPS,ioos:station:USF.COMPS:C10:1,2009-08-02T05:20:00Z,27.1690,-82.9260,-1.0,30.34,2 
COMPS,ioos:station:USF.COMPS:C10:1,2009-08-02T05:40:00Z,27.1690,-82.9260,-1.0,30.33,2 
COMPS,ioos:station:USF.COMPS:C10:1,2009-08-02T06:00:00Z,27.1690,-82.9260,-1.0,30.33,2 
COMPS,ioos:station:USF.COMPS:C10:1,2009-08-02T06:20:00Z,27.1690,-82.9260,-1.0,30.32,2 
COMPS,ioos:station:USF.COMPS:C10:1,2009-08-02T06:40:00Z,27.1690,-82.9260,-1.0,30.32,2 
COMPS,ioos:station:USF.COMPS:C10:1,2009-08-02T07:00:00Z,27.1690,-82.9260,-1.0,30.31,2 
COMPS,ioos:station:USF.COMPS:C10:1,2009-08-02T07:20:00Z,27.1690,-82.9260,-1.0,30.3,2 
COMPS,ioos:station:USF.COMPS:C10:1,2009-08-02T07:40:00Z,27.1690,-82.9260,-1.0,30.3,2 
COMPS,ioos:station:USF.COMPS:C10:1,2009-08-02T08:00:00Z,27.1690,-82.9260,-1.0,30.3,2 
COMPS,ioos:station:USF.COMPS:C10:1,2009-08-02T08:20:00Z,27.1690,-82.9260,-1.0,30.3,2 
COMPS,ioos:station:USF.COMPS:C10:1,2009-08-02T08:40:00Z,27.1690,-82.9260,-1.0,30.32,2 
COMPS,ioos:station:USF.COMPS:C10:1,2009-08-02T09:00:00Z,27.1690,-82.9260,-1.0,30.32,2 
COMPS,ioos:station:USF.COMPS:C10:1,2009-08-02T09:20:00Z,27.1690,-82.9260,-1.0,30.32,2 
COMPS,ioos:station:USF.COMPS:C10:1,2009-08-02T09:40:00Z,27.1690,-82.9260,-1.0,30.32,2 
COMPS,ioos:station:USF.COMPS:C10:1,2009-08-02T10:00:00Z,27.1690,-82.9260,-1.0,30.31,2 
COMPS,ioos:station:USF.COMPS:C10:1,2009-08-02T10:20:00Z,27.1690,-82.9260,-1.0,30.3,2 
COMPS,ioos:station:USF.COMPS:C10:1,2009-08-02T10:40:00Z,27.1690,-82.9260,-1.0,30.3,2 
COMPS,ioos:station:USF.COMPS:C10:1,2009-08-02T11:00:00Z,27.1690,-82.9260,-1.0,30.29,2 
COMPS,ioos:station:USF.COMPS:C10:1,2009-08-02T11:20:00Z,27.1690,-82.9260,-1.0,30.28,2 
COMPS,ioos:station:USF.COMPS:C10:1,2009-08-02T11:40:00Z,27.1690,-82.9260,-1.0,30.26,2 
COMPS,ioos:station:USF.COMPS:C10:1,2009-08-02T12:00:00Z,27.1690,-82.9260,-1.0,30.25,2 
COMPS,ioos:station:USF.COMPS:C10:1,2009-08-02T12:20:00Z,27.1690,-82.9260,-1.0,30.24,2 
COMPS,ioos:station:USF.COMPS:C10:1,2009-08-02T12:40:00Z,27.1690,-82.9260,-1.0,30.22,2 
COMPS,ioos:station:USF.COMPS:C10:1,2009-08-02T13:00:00Z,27.1690,-82.9260,-1.0,30.21,2 
COMPS,ioos:station:USF.COMPS:C10:1,2009-08-02T13:20:00Z,27.1690,-82.9260,-1.0,30.23,2 
COMPS,ioos:station:USF.COMPS:C10:1,2009-08-02T13:40:00Z,27.1690,-82.9260,-1.0,30.26,2 
COMPS,ioos:station:USF.COMPS:C10:1,2009-08-02T14:00:00Z,27.1690,-82.9260,-1.0,30.26,2 
COMPS,ioos:station:USF.COMPS:C10:1,2009-08-02T14:20:00Z,27.1690,-82.9260,-1.0,30.26,2 
COMPS,ioos:station:USF.COMPS:C10:1,2009-08-02T14:40:00Z,27.1690,-82.9260,-1.0,30.28,2 
COMPS,ioos:station:USF.COMPS:C10:1,2009-08-02T15:00:00Z,27.1690,-82.9260,-1.0,30.3,2 
COMPS,ioos:station:USF.COMPS:C10:1,2009-08-02T15:20:00Z,27.1690,-82.9260,-1.0,30.32,2 
COMPS,ioos:station:USF.COMPS:C10:1,2009-08-02T15:40:00Z,27.1690,-82.9260,-1.0,30.32,2 
COMPS,ioos:station:USF.COMPS:C10:1,2009-08-02T16:00:00Z,27.1690,-82.9260,-1.0,30.32,2 
COMPS,ioos:station:USF.COMPS:C10:1,2009-08-02T16:20:00Z,27.1690,-82.9260,-1.0,30.32,2 
COMPS,ioos:station:USF.COMPS:C10:1,2009-08-02T16:40:00Z,27.1690,-82.9260,-1.0,30.33,2 
COMPS,ioos:station:USF.COMPS:C10:1,2009-08-02T17:20:00Z,27.1690,-82.9260,-1.0,30.35,2 
COMPS,ioos:station:USF.COMPS:C10:1,2009-08-02T17:40:00Z,27.1690,-82.9260,-1.0,30.35,2 
COMPS,ioos:station:USF.COMPS:C10:1,2009-08-02T18:00:00Z,27.1690,-82.9260,-1.0,30.34,2 
COMPS,ioos:station:USF.COMPS:C10:1,2009-08-02T18:20:00Z,27.1690,-82.9260,-1.0,30.36,2 
COMPS,ioos:station:USF.COMPS:C10:1,2009-08-02T18:40:00Z,27.1690,-82.9260,-1.0,30.36,2 
COMPS,ioos:station:USF.COMPS:C10:1,2009-08-02T19:00:00Z,27.1690,-82.9260,-1.0,30.38,2 
COMPS,ioos:station:USF.COMPS:C10:1,2009-08-02T19:20:00Z,27.1690,-82.9260,-1.0,30.41,2 
COMPS,ioos:station:USF.COMPS:C10:1,2009-08-02T19:40:00Z,27.1690,-82.9260,-1.0,30.43,2 
COMPS,ioos:station:USF.COMPS:C10:1,2009-08-02T20:00:00Z,27.1690,-82.9260,-1.0,30.45,2 
COMPS,ioos:station:USF.COMPS:C10:1,2009-08-02T20:20:00Z,27.1690,-82.9260,-1.0,30.46,2 
COMPS,ioos:station:USF.COMPS:C10:1,2009-08-02T20:40:00Z,27.1690,-82.9260,-1.0,30.46,2 
COMPS,ioos:station:USF.COMPS:C10:1,2009-08-02T21:00:00Z,27.1690,-82.9260,-1.0,30.49,2 
COMPS,ioos:station:USF.COMPS:C10:1,2009-08-02T21:20:00Z,27.1690,-82.9260,-1.0,30.49,2 
COMPS,ioos:station:USF.COMPS:C10:1,2009-08-02T21:40:00Z,27.1690,-82.9260,-1.0,30.49,2 
COMPS,ioos:station:USF.COMPS:C10:1,2009-08-02T22:00:00Z,27.1690,-82.9260,-1.0,30.52,2 
COMPS,ioos:station:USF.COMPS:C10:1,2009-08-02T22:20:00Z,27.1690,-82.9260,-1.0,30.57,2 
COMPS,ioos:station:USF.COMPS:C10:1,2009-08-02T22:40:00Z,27.1690,-82.9260,-1.0,30.6,2 
COMPS,ioos:station:USF.COMPS:C10:1,2009-08-02T23:00:00Z,27.1690,-82.9260,-1.0,30.6,2 
COMPS,ioos:station:USF.COMPS:C10:1,2009-08-02T23:20:00Z,27.1690,-82.9260,-1.0,30.58,2 
COMPS,ioos:station:USF.COMPS:C10:1,2009-08-02T23:40:00Z,27.1690,-82.9260,-1.0,30.57,2 
COMPS,ioos:station:USF.COMPS:C10:1,2009-08-03T00:00:00Z,27.1690,-82.9260,-1.0,30.63,2 
COMPS,ioos:station:USF.COMPS:C10:1,2009-08-03T00:20:00Z,27.1690,-82.9260,-1.0,30.65,2 
COMPS,ioos:station:USF.COMPS:C10:1,2009-08-03T00:40:00Z,27.1690,-82.9260,-1.0,30.62,2 
COMPS,ioos:station:USF.COMPS:C10:1,2009-08-03T01:00:00Z,27.1690,-82.9260,-1.0,30.64,2 
COMPS,ioos:station:USF.COMPS:C10:1,2009-08-03T01:20:00Z,27.1690,-82.9260,-1.0,30.67,2 
COMPS,ioos:station:USF.COMPS:C10:1,2009-08-03T01:40:00Z,27.1690,-82.9260,-1.0,30.71,2 
COMPS,ioos:station:USF.COMPS:C10:1,2009-08-03T02:00:00Z,27.1690,-82.9260,-1.0,30.7,2 
COMPS,ioos:station:USF.COMPS:C10:1,2009-08-03T02:20:00Z,27.1690,-82.9260,-1.0,30.68,2 
COMPS,ioos:station:USF.COMPS:C10:1,2009-08-03T02:40:00Z,27.1690,-82.9260,-1.0,30.65,2 
COMPS,ioos:station:USF.COMPS:C10:1,2009-08-03T03:00:00Z,27.1690,-82.9260,-1.0,30.6,2 
COMPS,ioos:station:USF.COMPS:C10:1,2009-08-03T03:20:00Z,27.1690,-82.9260,-1.0,30.57,2 
COMPS,ioos:station:USF.COMPS:C10:1,2009-08-03T03:40:00Z,27.1690,-82.9260,-1.0,30.56,2 
COMPS,ioos:station:USF.COMPS:C10:1,2009-08-03T04:00:00Z,27.1690,-82.9260,-1.0,30.58,2 
COMPS,ioos:station:USF.COMPS:C10:1,2009-08-03T04:20:00Z,27.1690,-82.9260,-1.0,30.6,2 
COMPS,ioos:station:USF.COMPS:C10:1,2009-08-03T04:40:00Z,27.1690,-82.9260,-1.0,30.62,2 
COMPS,ioos:station:USF.COMPS:C10:1,2009-08-03T05:00:00Z,27.1690,-82.9260,-1.0,30.77,2 
COMPS,ioos:station:USF.COMPS:C10:1,2009-08-03T05:20:00Z,27.1690,-82.9260,-1.0,30.84,2 
COMPS,ioos:station:USF.COMPS:C10:1,2009-08-03T05:40:00Z,27.1690,-82.9260,-1.0,30.85,2 
COMPS,ioos:station:USF.COMPS:C10:1,2009-08-03T06:00:00Z,27.1690,-82.9260,-1.0,30.86,2 
COMPS,ioos:station:USF.COMPS:C10:1,2009-08-03T06:20:00Z,27.1690,-82.9260,-1.0,30.85,2 
COMPS,ioos:station:USF.COMPS:C10:1,2009-08-03T06:40:00Z,27.1690,-82.9260,-1.0,30.84,2 
COMPS,ioos:station:USF.COMPS:C10:1,2009-08-03T07:00:00Z,27.1690,-82.9260,-1.0,30.84,2 
COMPS,ioos:station:USF.COMPS:C10:1,2009-08-03T07:20:00Z,27.1690,-82.9260,-1.0,30.83,2 
COMPS,ioos:station:USF.COMPS:C10:1,2009-08-03T07:40:00Z,27.1690,-82.9260,-1.0,30.8,2 
COMPS,ioos:station:USF.COMPS:C10:1,2009-08-03T08:00:00Z,27.1690,-82.9260,-1.0,30.81,2 
COMPS,ioos:station:USF.COMPS:C10:1,2009-08-03T08:20:00Z,27.1690,-82.9260,-1.0,30.76,2 
COMPS,ioos:station:USF.COMPS:C10:1,2009-08-03T08:40:00Z,27.1690,-82.9260,-1.0,30.76,2 
COMPS,ioos:station:USF.COMPS:C10:1,2009-08-03T09:00:00Z,27.1690,-82.9260,-1.0,30.73,2 
COMPS,ioos:station:USF.COMPS:C10:1,2009-08-03T09:20:00Z,27.1690,-82.9260,-1.0,30.75,2 
COMPS,ioos:station:USF.COMPS:C10:1,2009-08-03T09:40:00Z,27.1690,-82.9260,-1.0,30.75,2 
COMPS,ioos:station:USF.COMPS:C10:1,2009-08-03T10:00:00Z,27.1690,-82.9260,-1.0,30.73,2 
COMPS,ioos:station:USF.COMPS:C10:1,2009-08-03T10:20:00Z,27.1690,-82.9260,-1.0,30.71,2 
COMPS,ioos:station:USF.COMPS:C10:1,2009-08-03T10:40:00Z,27.1690,-82.9260,-1.0,30.7,2 
COMPS,ioos:station:USF.COMPS:C10:1,2009-08-03T11:00:00Z,27.1690,-82.9260,-1.0,30.66,2 
COMPS,ioos:station:USF.COMPS:C10:1,2009-08-03T11:20:00Z,27.1690,-82.9260,-1.0,30.64,2 
COMPS,ioos:station:USF.COMPS:C10:1,2009-08-03T11:40:00Z,27.1690,-82.9260,-1.0,30.63,2 
COMPS,ioos:station:USF.COMPS:C10:1,2009-08-03T12:00:00Z,27.1690,-82.9260,-1.0,30.63,2 
COMPS,ioos:station:USF.COMPS:C10:1,2009-08-03T12:20:00Z,27.1690,-82.9260,-1.0,30.61,2 
COMPS,ioos:station:USF.COMPS:C10:1,2009-08-03T12:40:00Z,27.1690,-82.9260,-1.0,30.6,2 
COMPS,ioos:station:USF.COMPS:C10:1,2009-08-03T13:00:00Z,27.1690,-82.9260,-1.0,30.6,2 
COMPS,ioos:station:USF.COMPS:C10:1,2009-08-03T13:20:00Z,27.1690,-82.9260,-1.0,30.59,2 
COMPS,ioos:station:USF.COMPS:C10:1,2009-08-03T13:40:00Z,27.1690,-82.9260,-1.0,30.58,2 
COMPS,ioos:station:USF.COMPS:C10:1,2009-08-03T14:00:00Z,27.1690,-82.9260,-1.0,30.59,2 
COMPS,ioos:station:USF.COMPS:C10:1,2009-08-03T14:20:00Z,27.1690,-82.9260,-1.0,30.59,2 
COMPS,ioos:station:USF.COMPS:C10:1,2009-08-03T14:40:00Z,27.1690,-82.9260,-1.0,30.6,2 
COMPS,ioos:station:USF.COMPS:C10:1,2009-08-03T15:00:00Z,27.1690,-82.9260,-1.0,30.59,2 
COMPS,ioos:station:USF.COMPS:C10:1,2009-08-03T15:20:00Z,27.1690,-82.9260,-1.0,30.57,2 
COMPS,ioos:station:USF.COMPS:C10:1,2009-08-03T15:40:00Z,27.1690,-82.9260,-1.0,30.57,2 
COMPS,ioos:station:USF.COMPS:C10:1,2009-08-03T16:00:00Z,27.1690,-82.9260,-1.0,30.56,2 
COMPS,ioos:station:USF.COMPS:C10:1,2009-08-03T16:20:00Z,27.1690,-82.9260,-1.0,30.55,2 
COMPS,ioos:station:USF.COMPS:C10:1,2009-08-03T16:40:00Z,27.1690,-82.9260,-1.0,30.54,2 
COMPS,ioos:station:USF.COMPS:C10:1,2009-08-03T17:00:00Z,27.1690,-82.9260,-1.0,30.52,2 
COMPS,ioos:station:USF.COMPS:C10:1,2009-08-03T17:20:00Z,27.1690,-82.9260,-1.0,30.53,2 
COMPS,ioos:station:USF.COMPS:C10:1,2009-08-03T17:40:00Z,27.1690,-82.9260,-1.0,30.54,2 
COMPS,ioos:station:USF.COMPS:C10:1,2009-08-03T18:00:00Z,27.1690,-82.9260,-1.0,30.54,2 
COMPS,ioos:station:USF.COMPS:C10:1,2009-08-03T18:20:00Z,27.1690,-82.9260,-1.0,30.54,2 
COMPS,ioos:station:USF.COMPS:C10:1,2009-08-03T18:40:00Z,27.1690,-82.9260,-1.0,30.53,2 
COMPS,ioos:station:USF.COMPS:C10:1,2009-08-03T19:00:00Z,27.1690,-82.9260,-1.0,30.53,2 
COMPS,ioos:station:USF.COMPS:C10:1,2009-08-03T19:20:00Z,27.1690,-82.9260,-1.0,30.58,2 
COMPS,ioos:station:USF.COMPS:C10:1,2009-08-03T19:40:00Z,27.1690,-82.9260,-1.0,30.55,2 
COMPS,ioos:station:USF.COMPS:C10:1,2009-08-03T20:00:00Z,27.1690,-82.9260,-1.0,30.55,2 
COMPS,ioos:station:USF.COMPS:C10:1,2009-08-03T20:20:00Z,27.1690,-82.9260,-1.0,30.59,2 
COMPS,ioos:station:USF.COMPS:C10:1,2009-08-03T20:40:00Z,27.1690,-82.9260,-1.0,30.6,2 
COMPS,ioos:station:USF.COMPS:C10:1,2009-08-03T21:00:00Z,27.1690,-82.9260,-1.0,30.58,2 
COMPS,ioos:station:USF.COMPS:C10:1,2009-08-03T21:20:00Z,27.1690,-82.9260,-1.0,30.61,2 
COMPS,ioos:station:USF.COMPS:C10:1,2009-08-03T21:40:00Z,27.1690,-82.9260,-1.0,30.62,2 
COMPS,ioos:station:USF.COMPS:C10:1,2009-08-03T22:00:00Z,27.1690,-82.9260,-1.0,30.62,2 
COMPS,ioos:station:USF.COMPS:C10:1,2009-08-03T22:20:00Z,27.1690,-82.9260,-1.0,30.64,2 
COMPS,ioos:station:USF.COMPS:C10:1,2009-08-03T22:40:00Z,27.1690,-82.9260,-1.0,30.65,2 
COMPS,ioos:station:USF.COMPS:C10:1,2009-08-03T23:00:00Z,27.1690,-82.9260,-1.0,30.66,2 
COMPS,ioos:station:USF.COMPS:C10:1,2009-08-03T23:20:00Z,27.1690,-82.9260,-1.0,30.72,2 
COMPS,ioos:station:USF.COMPS:C10:1,2009-08-03T23:40:00Z,27.1690,-82.9260,-1.0,30.7,2 
COMPS,ioos:station:USF.COMPS:C10:1,2009-08-04T00:00:00Z,27.1690,-82.9260,-1.0,30.77,2 
COMPS,ioos:station:USF.COMPS:C10:1,2009-08-04T00:20:00Z,27.1690,-82.9260,-1.0,30.78,2 
COMPS,ioos:station:USF.COMPS:C10:1,2009-08-04T00:40:00Z,27.1690,-82.9260,-1.0,30.81,2 
COMPS,ioos:station:USF.COMPS:C10:1,2009-08-04T01:00:00Z,27.1690,-82.9260,-1.0,30.84,2 
COMPS,ioos:station:USF.COMPS:C10:1,2009-08-04T01:20:00Z,27.1690,-82.9260,-1.0,30.91,2 
COMPS,ioos:station:USF.COMPS:C10:1,2009-08-04T01:40:00Z,27.1690,-82.9260,-1.0,30.94,2 
COMPS,ioos:station:USF.COMPS:C10:1,2009-08-04T02:00:00Z,27.1690,-82.9260,-1.0,30.93,2 
COMPS,ioos:station:USF.COMPS:C10:1,2009-08-04T02:20:00Z,27.1690,-82.9260,-1.0,30.91,2 
COMPS,ioos:station:USF.COMPS:C10:1,2009-08-04T02:40:00Z,27.1690,-82.9260,-1.0,30.9,2 
COMPS,ioos:station:USF.COMPS:C10:1,2009-08-04T03:00:00Z,27.1690,-82.9260,-1.0,30.88,2 
COMPS,ioos:station:USF.COMPS:C10:1,2009-08-04T03:20:00Z,27.1690,-82.9260,-1.0,30.89,2 
COMPS,ioos:station:USF.COMPS:C10:1,2009-08-04T03:40:00Z,27.1690,-82.9260,-1.0,30.96,2 
COMPS,ioos:station:USF.COMPS:C10:1,2009-08-04T04:00:00Z,27.1690,-82.9260,-1.0,30.97,2 
COMPS,ioos:station:USF.COMPS:C10:1,2009-08-04T04:20:00Z,27.1690,-82.9260,-1.0,30.95,2 
COMPS,ioos:station:USF.COMPS:C10:1,2009-08-04T04:40:00Z,27.1690,-82.9260,-1.0,30.91,2 
COMPS,ioos:station:USF.COMPS:C10:1,2009-08-04T05:00:00Z,27.1690,-82.9260,-1.0,30.87,2 
COMPS,ioos:station:USF.COMPS:C10:1,2009-08-04T05:20:00Z,27.1690,-82.9260,-1.0,30.83,2 
COMPS,ioos:station:USF.COMPS:C10:1,2009-08-04T05:40:00Z,27.1690,-82.9260,-1.0,30.81,2 
COMPS,ioos:station:USF.COMPS:C10:1,2009-08-04T06:00:00Z,27.1690,-82.9260,-1.0,30.71,2 
COMPS,ioos:station:USF.COMPS:C10:1,2009-08-04T06:20:00Z,27.1690,-82.9260,-1.0,30.72,2 
COMPS,ioos:station:USF.COMPS:C10:1,2009-08-04T06:40:00Z,27.1690,-82.9260,-1.0,30.7,2 
COMPS,ioos:station:USF.COMPS:C10:1,2009-08-04T07:00:00Z,27.1690,-82.9260,-1.0,30.69,2 
COMPS,ioos:station:USF.COMPS:C10:1,2009-08-04T07:20:00Z,27.1690,-82.9260,-1.0,30.69,2 
COMPS,ioos:station:USF.COMPS:C10:1,2009-08-04T07:40:00Z,27.1690,-82.9260,-1.0,30.69,2 
COMPS,ioos:station:USF.COMPS:C10:1,2009-08-04T08:00:00Z,27.1690,-82.9260,-1.0,30.69,2 
COMPS,ioos:station:USF.COMPS:C10:1,2009-08-04T08:20:00Z,27.1690,-82.9260,-1.0,30.69,2 
COMPS,ioos:station:USF.COMPS:C10:1,2009-08-04T08:40:00Z,27.1690,-82.9260,-1.0,30.68,2 
COMPS,ioos:station:USF.COMPS:C10:1,2009-08-04T09:00:00Z,27.1690,-82.9260,-1.0,30.68,2 
COMPS,ioos:station:USF.COMPS:C10:1,2009-08-04T09:20:00Z,27.1690,-82.9260,-1.0,30.68,2 
COMPS,ioos:station:USF.COMPS:C10:1,2009-08-04T09:40:00Z,27.1690,-82.9260,-1.0,30.69,2 
COMPS,ioos:station:USF.COMPS:C10:1,2009-08-04T10:00:00Z,27.1690,-82.9260,-1.0,30.68,2 
COMPS,ioos:station:USF.COMPS:C10:1,2009-08-04T10:20:00Z,27.1690,-82.9260,-1.0,30.67,2 
COMPS,ioos:station:USF.COMPS:C10:1,2009-08-04T10:40:00Z,27.1690,-82.9260,-1.0,30.67,2 
COMPS,ioos:station:USF.COMPS:C10:1,2009-08-04T11:00:00Z,27.1690,-82.9260,-1.0,30.67,2 
COMPS,ioos:station:USF.COMPS:C10:1,2009-08-04T11:20:00Z,27.1690,-82.9260,-1.0,30.67,2 
COMPS,ioos:station:USF.COMPS:C10:1,2009-08-04T11:40:00Z,27.1690,-82.9260,-1.0,30.66,2 
COMPS,ioos:station:USF.COMPS:C10:1,2009-08-04T12:00:00Z,27.1690,-82.9260,-1.0,30.66,2 
COMPS,ioos:station:USF.COMPS:C10:1,2009-08-04T12:20:00Z,27.1690,-82.9260,-1.0,30.66,2 
COMPS,ioos:station:USF.COMPS:C10:1,2009-08-04T12:40:00Z,27.1690,-82.9260,-1.0,30.66,2 
COMPS,ioos:station:USF.COMPS:C10:1,2009-08-04T13:00:00Z,27.1690,-82.9260,-1.0,30.65,2 
COMPS,ioos:station:USF.COMPS:C10:1,2009-08-04T13:20:00Z,27.1690,-82.9260,-1.0,30.66,2 
COMPS,ioos:station:USF.COMPS:C10:1,2009-08-04T13:40:00Z,27.1690,-82.9260,-1.0,30.66,2 
COMPS,ioos:station:USF.COMPS:C10:1,2009-08-04T14:00:00Z,27.1690,-82.9260,-1.0,30.66,2 
COMPS,ioos:station:USF.COMPS:C10:1,2009-08-04T14:20:00Z,27.1690,-82.9260,-1.0,30.67,2 
COMPS,ioos:station:USF.COMPS:C10:1,2009-08-04T14:40:00Z,27.1690,-82.9260,-1.0,30.67,2 
COMPS,ioos:station:USF.COMPS:C10:1,2009-08-04T15:00:00Z,27.1690,-82.9260,-1.0,30.67,2 
COMPS,ioos:station:USF.COMPS:C10:1,2009-08-04T15:20:00Z,27.1690,-82.9260,-1.0,30.67,2 
COMPS,ioos:station:USF.COMPS:C10:1,2009-08-04T15:40:00Z,27.1690,-82.9260,-1.0,30.68,2 
COMPS,ioos:station:USF.COMPS:C10:1,2009-08-04T16:00:00Z,27.1690,-82.9260,-1.0,30.69,2 
COMPS,ioos:station:USF.COMPS:C10:1,2009-08-04T16:20:00Z,27.1690,-82.9260,-1.0,30.69,2 
COMPS,ioos:station:USF.COMPS:C10:1,2009-08-04T17:40:00Z,27.1690,-82.9260,-1.0,30.73,2 
COMPS,ioos:station:USF.COMPS:C10:1,2009-08-04T18:00:00Z,27.1690,-82.9260,-1.0,30.74,2 
COMPS,ioos:station:USF.COMPS:C10:1,2009-08-04T18:20:00Z,27.1690,-82.9260,-1.0,30.75,2 
COMPS,ioos:station:USF.COMPS:C10:1,2009-08-04T18:40:00Z,27.1690,-82.9260,-1.0,30.75,2 
COMPS,ioos:station:USF.COMPS:C10:1,2009-08-04T19:00:00Z,27.1690,-82.9260,-1.0,30.76,2 
COMPS,ioos:station:USF.COMPS:C10:1,2009-08-04T19:20:00Z,27.1690,-82.9260,-1.0,30.77,2 
COMPS,ioos:station:USF.COMPS:C10:1,2009-08-04T19:40:00Z,27.1690,-82.9260,-1.0,30.77,2 
COMPS,ioos:station:USF.COMPS:C10:1,2009-08-04T20:00:00Z,27.1690,-82.9260,-1.0,30.76,2 
COMPS,ioos:station:USF.COMPS:C10:1,2009-08-04T20:20:00Z,27.1690,-82.9260,-1.0,30.77,2 
COMPS,ioos:station:USF.COMPS:C10:1,2009-08-04T20:40:00Z,27.1690,-82.9260,-1.0,30.77,2 